Lid_Strength_Index
10 13 15 13 13 12 14 14 15 14 12 13 14 13 12 11 12 11 12 12 12 12 11 11 11 11 12 12 11 9 9 10 10 11 11 11 11 10 8 7 7 7 7 6
13 15 12 12 12 13 14 16 16 13 13 14 14 14 11 11 11 12 12 11 12 12 12 12 12 12 12 12 11 10 9 9 10 10 10 10 10 8 7 7 8 7 7 6
15 13 11 11 13 14 15 16 16 15 14 14 15 16 14 12 12 12 12 12 12 12 12 13 13 13 13 13 11 10 9 9 10 10 10 10 8 7 7 8 8 7 7 6
13 12 12 13 13 13 16 13 13 14 15 19 16 20 18 14 13 12 12 12 13 13 12 13 13 14 14 13 11 10 10 10 10 10 10 10 10 8 7 7 8 7 6 6
14 14 14 14 13 12 14 13 13 15 16 18 18 20 17 16 14 13 13 13 13 13 13 13 13 13 13 12 12 11 10 10 10 10 10 9 10 7 8 8 8 7 6 6
14 12 13 13 13 13 13 14 15 16 17 22 20 19 19 17 15 12 13 13 12 13 13 13 13 13 13 12 12 12 11 11 10 10 10 10 10 10 9 9 8 8 6 6
15 15 13 12 14 13 14 16 22 23 24 21 19 20 17 14 13 13 12 12 13 13 13 14 14 14 13 12 12 12 11 11 11 11 11 10 10 10 9 8 8 7 6 5
18 18 13 12 13 14 15 15 20 24 23 21 18 20 16 13 13 14 13 13 12 13 13 13 13 13 13 12 12 12 12 11 11 11 11 10 10 10 10 8 6 4 4 5
18 18 14 13 12 12 15 16 14 17 23 22 20 18 14 15 14 14 14 13 13 14 13 13 14 13 13 12 12 12 12 12 11 11 11 10 11 10 10 8 6 5 4 4
14 18 16 15 14 13 14 13 17 19 23 23 20 19 17 15 15 15 15 14 13 14 14 14 14 14 13 13 12 12 12 12 11 11 11 11 11 10 10 9 8 6 4 4
13 14 18 16 17 17 17 17 16 16 17 20 21 18 16 17 16 16 15 14 14 13 13 13 14 14 14 13 13 12 12 12 12 11 11 11 11 10 10 10 8 7 5 4
12 14 19 18 16 15 16 16 16 19 20 19 18 19 15 15 16 16 16 15 14 13 13 13 13 14 15 14 14 13 12 12 11 11 11 11 10 10 11 10 8 6 5 4
11 15 19 17 15 16 17 16 16 16 17 20 20 19 15 15 16 17 17 16 16 16 16 15 14 14 15 15 14 13 13 12 11 11 11 12 11 10 11 11 9 7 6 5
10 14 15 18 17 16 18 17 16 16 19 18 18 18 17 17 18 18 18 17 17 17 17 17 16 15 15 15 15 15 13 12 11 11 12 12 12 11 10 10 9 8 8 6
13 16 16 15 14 15 16 17 16 16 16 18 18 17 18 18 19 18 18 17 18 18 18 18 17 17 16 17 16 15 14 12 11 12 12 12 12 11 11 10 10 10 9 8
12 15 15 17 14 15 15 14 14 15 16 16 17 17 18 17 18 19 18 19 19 18 18 18 18 18 17 18 18 16 15 14 12 12 12 12 12 12 12 11 10 11 10 9
14 14 16 19 16 15 18 17 15 14 18 17 17 19 18 18 18 19 18 18 19 18 18 19 19 19 18 19 18 18 16 15 14 12 12 12 13 13 13 12 11 11 11 10
15 14 14 19 17 20 18 17 16 18 19 18 19 18 18 18 18 17 17 18 19 19 19 19 19 19 19 19 19 17 16 16 15 14 13 13 13 13 13 14 13 11 11 11
15 15 17 20 22 17 17 19 18 18 20 18 19 18 18 17 16 17 17 17 18 18 18 18 18 19 19 19 19 18 18 18 18 18 17 17 15 14 14 15 14 12 11 11
14 13 16 21 22 22 19 17 15 16 21 18 18 19 18 17 19 19 17 17 17 17 17 18 18 18 19 19 19 19 19 19 20 19 18 18 17 16 14 14 15 14 14 12
22 16 18 17 17 20 16 15 14 19 21 17 16 17 18 19 17 16 16 17 17 17 18 17 18 19 19 19 19 20 19 20 20 19 19 18 17 17 16 15 15 16 15 15
21 23 22 20 20 20 14 15 18 16 14 14 15 15 17 17 16 17 17 17 18 19 19 19 20 20 19 19 20 20 20 20 20 20 20 19 18 17 17 17 16 16 16 15
21 20 21 17 19 15 14 14 12 12 14 13 13 15 16 16 16 17 18 18 19 19 20 20 21 21 20 20 21 22 21 20 20 21 21 20 19 18 17 17 17 17 17 15
20 18 21 19 20 17 16 14 13 12 13 13 15 15 16 17 17 17 17 18 19 19 20 20 21 22 22 22 22 22 21 21 22 22 21 20 19 19 17 17 16 16 15 15
18 17 19 19 16 13 12 13 12 12 13 14 15 16 17 18 17 18 19 19 20 20 21 21 22 22 23 22 23 22 22 23 23 22 21 21 20 20 19 17 17 16 15 14
16 17 19 20 16 14 13 11 12 14 14 16 17 18 17 17 18 19 19 19 20 21 21 22 22 23 23 23 23 23 23 23 24 23 22 21 21 20 19 19 18 15 14 14